Orbital Elements at Epoch 2459200.5 (2020-Dec-17.0) TDB
Reference: JPL 17 (heliocentric ecliptic J2000)
Element | Value | Uncertainty (1-sigma) | Units |
e | .2124003929573557 | 2.9166e-08 | |
a | 2.544086120721476 | 1.0826e-08 | au |
q | 2.00372122896288 | 7.2703e-08 | au |
i | 3.314753745056994 | 5.3271e-06 | deg |
node | 181.5635093724854 | 8.863e-05 | deg |
peri | 227.425165096181 | 9.0459e-05 | deg |
M | 47.42962195959978 | 1.8531e-05 | deg |
tp | 2459005.226503700520 (2020-Jun-04.72650370) | 7.6082e-05 | TDB |
period | 1482.163588141024 4.06 | 9.4611e-06 2.59e-08 | d yr |
n | .2428881689446461 | 1.5504e-09 | deg/d |
Q | 3.084451012480073 | 1.3126e-08 | au |
|
| | Orbit Determination Parameters
Additional Information
|